Weather History for KCMX - August, 2014

Change the Weather History Date:

Sunday, August 10, 2014

  Actual Average Record
Temperature  
Mean Temperature 68 °F -  
Max Temperature 81 °F 72 °F 88 °F (1988)
Min Temperature 57 °F 54 °F 41 °F (1967)
Cooling Degree Days 4    
Growing Degree Days 18 (Base 50)    
Moisture  
Dew Point 57 °F    
Average Humidity 73    
Maximum Humidity 96    
Minimum Humidity 47    
Precipitation  
Precipitation 0.00 in - - ()
Sea Level Pressure  
Sea Level Pressure 30.08 in    
Wind  
Wind Speed 3 mph (NNE)    
Max Wind Speed 10 mph    
Max Gust Speed -    
Visibility 8 miles    
Events      
Averages and records for this station are not official NWS values.
T = Trace of Precipitation, MM = Missing Value Source: NWS Daily Summary

Daily Weather History Graph

Daily Weather History Graph

Search for Another Location

Airport or City:

Trip Planner

Search our weather history database for the weather conditions in past years. The results will help you decide how hot, cold, wet, or windy it might be!

Date:

Astronomy

Aug. 10, 2014 Rise Set
Actual Time 6:44 AM EDT 9:13 PM EDT
Civil Twilight 6:10 AM EDT 9:47 PM EDT
Nautical Twilight 5:26 AM EDT 10:30 PM EDT
Astronomical Twilight 4:37 AM EDT 11:19 PM EDT
Moon 8:54 PM EDT (8/10) 6:39 AM EDT (8/10)
Length of Visible Light 15h 37m
Length of Day
14h 29m
Full, 100% of the Moon is Illuminated
Aug 10
Full
Aug 10
Full
Aug 17
Last Quarter
Aug 25
New
Sep 2
First Quarter

Hourly Weather History & Observations

Time (EDT) Temp. Heat Index Dew Point Humidity Pressure Visibility Wind Dir Wind Speed Gust Speed Precip Events Conditions
12:53 AM 63.0 °F - 57.0 °F 81% 30.10 in 10.0 mi East 4.6 mph - N/A   Clear
1:53 AM 63.0 °F - 57.0 °F 81% 30.10 in 10.0 mi ENE 5.8 mph - N/A   Clear
2:53 AM 61.0 °F - 57.0 °F 87% 30.09 in 9.0 mi Calm Calm - N/A   Clear
3:53 AM 61.0 °F - 57.0 °F 87% 30.09 in 9.0 mi SE 3.5 mph - N/A   Clear
4:53 AM 57.9 °F - 55.0 °F 90% 30.09 in 6.0 mi Calm Calm - N/A   Clear
5:53 AM 57.0 °F - 55.0 °F 93% 30.10 in 4.0 mi Calm Calm - N/A   Clear
6:26 AM 57.2 °F - 55.4 °F 94% 30.10 in 2.5 mi Calm Calm - N/A   Clear
6:34 AM 57.9 °F - 55.0 °F 90% 30.10 in 0.8 mi Calm Calm - N/A   Clear
6:53 AM 57.0 °F - 55.9 °F 96% 30.10 in 1.0 mi Calm Calm - N/A   Clear
7:17 AM 57.9 °F - 55.9 °F 93% 30.11 in 1.5 mi Calm Calm - N/A   Clear
7:28 AM 57.9 °F - 55.9 °F 93% 30.11 in 3.0 mi Calm Calm - N/A   Clear
7:41 AM 59.0 °F - 57.0 °F 93% 30.11 in 2.5 mi Calm Calm - N/A   Clear
7:53 AM 61.0 °F - 57.9 °F 90% 30.11 in 4.0 mi Calm Calm - N/A   Clear
8:53 AM 64.9 °F - 59.0 °F 81% 30.11 in 10.0 mi SW 3.5 mph - N/A   Clear
9:53 AM 69.8 °F - 60.8 °F 73% 30.11 in 10.0 mi Variable 3.5 mph - N/A   Clear
10:53 AM 75.0 °F - 57.9 °F 55% 30.10 in 10.0 mi West 8.1 mph - N/A   Clear
11:53 AM 75.9 °F - 59.0 °F 56% 30.10 in 10.0 mi WNW 9.2 mph - N/A   Partly Cloudy
12:53 PM 78.1 °F - 57.9 °F 50% 30.10 in 10.0 mi WNW 10.4 mph - N/A   Clear
1:53 PM 78.1 °F - 57.0 °F 48% 30.09 in 10.0 mi NW 5.8 mph - N/A   Clear
2:53 PM 79.0 °F - 57.0 °F 47% 30.06 in 10.0 mi Variable 4.6 mph - N/A   Clear
3:53 PM 80.6 °F 81.1 °F 59.0 °F 48% 30.05 in 10.0 mi NW 5.8 mph - N/A   Mostly Cloudy
4:53 PM 79.0 °F - 57.9 °F 48% 30.03 in 10.0 mi NW 10.4 mph - N/A   Clear
5:53 PM 79.0 °F - 57.9 °F 48% 30.03 in 10.0 mi North 6.9 mph - N/A   Clear
6:53 PM 77.0 °F - 57.9 °F 52% 30.02 in 10.0 mi North 4.6 mph - N/A   Clear
7:53 PM 71.6 °F - 60.8 °F 69% 30.02 in 10.0 mi East 5.8 mph - N/A   Clear
8:53 PM 69.1 °F - 60.1 °F 73% 30.01 in 10.0 mi East 4.6 mph - N/A   Clear
9:53 PM 66.9 °F - 55.9 °F 68% 30.01 in 10.0 mi ENE 4.6 mph - N/A   Clear
10:53 PM 66.0 °F - 55.9 °F 70% 29.99 in 10.0 mi ENE 5.8 mph - N/A   Clear